La Mercy, South Africa

8:38 AM SAST on November 18, 2017 (GMT +0200)
La Mercy

Weather History for FALE - August, 2013

Change the Weather History Date:

Saturday, August 3, 2013

  Actual Average Record
Temperature  
Mean Temperature 60 °F -  
Max Temperature 72 °F - - ()
Min Temperature 49 °F - - ()
Degree Days  
Heating Degree Days 4    
Growing Degree Days 10 (Base 50)    
Moisture  
Dew Point 53 °F    
Average Humidity 79    
Maximum Humidity 100    
Minimum Humidity 41    
Precipitation  
Precipitation 0.00 in - - ()
Sea Level Pressure  
Sea Level Pressure 30.36 in    
Wind  
Wind Speed 4 mph ()    
Max Wind Speed 18 mph    
Max Gust Speed -    
Visibility 9.4 miles    
Events      
T = Trace of Precipitation, MM = Missing Value Source: Averaged Metar Reports

Daily Weather History Graph

Daily Weather History Graph

Search for Another Location

Airport or City:

Trip Planner

Search our weather history database for the weather conditions in past years. The results will help you decide how hot, cold, wet, or windy it might be!

Date:

Astronomy

Aug. 03, 2013 Rise Set
Actual Time 6:38 AM SAST 5:24 PM SAST
Civil Twilight 6:13 AM SAST 5:49 PM SAST
Nautical Twilight 5:45 AM SAST 6:18 PM SAST
Astronomical Twilight 5:17 AM SAST 6:46 PM SAST
Moon 3:50 AM SAST (8/3) 2:36 PM SAST (8/3)
Length of Visible Light 11h 36m
Length of Day
10h 46m
Waning Crescent, 11% of the Moon is Illuminated
Aug 3
Waning Crescent
Aug 6
New
Aug 14
First Quarter
Aug 21
Full
Aug 28
Last Quarter

Hourly Weather History & Observations

Time (SAST) Temp. Dew Point Humidity Pressure Visibility Wind Dir Wind Speed Gust Speed Precip Events Conditions
12:00 AM 55.4 °F 53.6 °F 94% 30.36 in - Variable 2.3 mph - N/A   Clear
1:00 AM 51.8 °F 50.0 °F 94% 30.36 in - Variable 2.3 mph - N/A   Clear
2:00 AM 50 °F - % 30.42 in 12 mi Calm Calm - -  
2:00 AM 50.0 °F 48.2 °F 94% 30.36 in - Variable 1.2 mph - N/A   Clear
3:00 AM 50.0 °F 48.2 °F 94% 30.36 in - Variable 1.2 mph - N/A   Clear
4:00 AM 48.2 °F 48.2 °F 100% 30.33 in - Variable 2.3 mph - N/A   Clear
5:00 AM - - %  in - Calm Calm - -  
5:00 AM 48.2 °F 48.2 °F 100% 30.33 in - Variable 2.3 mph - N/A   Clear
6:00 AM 46.4 °F 46.4 °F 100% 30.36 in - SW 2.3 mph - N/A   Clear
7:00 AM 44.6 °F 44.6 °F 100% 30.36 in - SW 1.2 mph - N/A   Clear
8:00 AM 55 °F 48 °F 70% 30.46 in 12 mi Calm Calm - -  
8:00 AM 51.8 °F 51.8 °F 100% 30.39 in - Variable 1.2 mph - N/A   Clear
9:00 AM 59.0 °F 53.6 °F 82% 30.39 in - Variable 2.3 mph - N/A   Clear
10:00 AM 66.2 °F 51.8 °F 60% 30.39 in - Variable 2.3 mph - N/A   Clear
11:00 AM 70 °F 51 °F 41% 30.42 in 12 mi North 3.5 mph - -  
11:00 AM 68.0 °F 51.8 °F 56% 30.36 in - Variable 4.6 mph - N/A   Clear
12:00 PM 68.0 °F 55.4 °F 64% 30.36 in - East 6.9 mph - N/A   Clear
1:00 PM 69.8 °F 55.4 °F 60% 30.33 in - ENE 13.8 mph - N/A   Clear
2:00 PM 71 °F 54 °F 46% 30.32 in 12 mi ENE 13.8 mph - -  
2:00 PM 69.8 °F 55.4 °F 60% 30.30 in - ENE 13.8 mph - N/A   Clear
3:00 PM 69.8 °F 59.0 °F 68% 30.30 in - ENE 18.4 mph - N/A   Clear
4:00 PM 68.0 °F 59.0 °F 73% 30.30 in - ENE 18.4 mph - N/A   Clear
5:00 PM 68 °F 57 °F 60% 30.33 in 12 mi NE 12.7 mph - -  
5:00 PM 66.2 °F 59.0 °F 78% 30.33 in - NE 17.3 mph - N/A   Clear
6:00 PM 64.4 °F 59.0 °F 83% 30.33 in 6.2 mi NE 10.4 mph - N/A   Scattered Clouds
7:00 PM 64.4 °F 57.2 °F 77% 30.36 in 6.2 mi NE 10.4 mph - N/A   Scattered Clouds
8:00 PM 63 °F 57 °F 74% 30.38 in 12 mi NNE 6.9 mph - -   Scattered Clouds
8:00 PM 60.8 °F 57.2 °F 88% 30.36 in 6.2 mi NNE 5.8 mph - N/A   Partly Cloudy
9:00 PM 60.8 °F 57.2 °F 88% 30.39 in 6.2 mi NNE 8.1 mph - N/A   Partly Cloudy
10:00 PM 59.0 °F 55.4 °F 88% 30.39 in 6.2 mi NE 6.9 mph - N/A   Partly Cloudy
11:00 PM 59 °F 54 °F 79% 30.37 in - NNE 5.8 mph - -  
11:00 PM 57.2 °F 55.4 °F 94% 30.36 in - NNE 3.5 mph - N/A   Clear